Date String (YYYY-MM-DD hh:mm:ss) UTC,Instrument flags,Ambient pressure (hPa),Sample flow (lpm),Bypass flow (lpm),Sample temperature (°C),Ambient temperature (°C),ASC tube jacket temperature (°C),LED temperature (°C),Box temperature (°C),Sample RH (%),Span deviation,Mass concentration (μg/m³),Mass concentration (μg/m³),Mass concentration (μg/m³)
DateTimeUTC,F1_M11,P_M11,Q1_M11,Q2_M11,T1_M11,T2_M11,T3_M11,T4_M11,T5_M11,U1_M11,ZSPAN_M11,X0_M11,X2_M11,X1_M11
2022-07-06 23:00:00,,0828.2,5.00,0.00,30.5,28.2,00.0,38.9,31.9,32.3,0000.0,0006.94,0003.56,0002.70
2022-07-06 23:01:00,,0828.3,5.00,0.00,30.4,27.4,00.0,38.9,31.7,31.8,0000.0,0007.03,0003.57,0002.72
2022-07-06 23:02:00,,0828.3,5.01,0.00,30.4,27.0,00.0,38.8,31.7,31.5,0000.0,0007.41,0003.57,0002.70
2022-07-06 23:03:00,,0828.3,5.00,0.00,30.3,26.9,00.0,38.8,31.5,32.1,0000.0,0007.45,0003.53,0002.68
2022-07-06 23:04:00,,0828.3,4.99,0.00,30.2,27.0,00.0,38.8,31.4,32.4,0000.0,0007.38,0003.51,0002.67
2022-07-06 23:05:00,,0828.3,5.00,0.00,30.1,27.2,00.0,38.8,31.4,32.2,0000.0,0007.20,0003.43,0002.64
2022-07-06 23:06:00,,0828.2,5.00,0.00,30.0,27.4,00.0,38.8,31.4,31.8,0000.0,0007.11,0003.40,0002.60
2022-07-06 23:07:00,,0828.3,5.01,0.00,30.0,27.5,00.0,38.7,31.4,32.0,0000.0,0006.83,0003.34,0002.54
2022-07-06 23:08:00,,0828.3,4.99,0.00,30.0,27.7,00.0,38.7,31.4,32.7,0000.0,0006.79,0003.35,0002.52
2022-07-06 23:09:00,,0828.3,5.00,0.00,30.0,27.8,00.0,38.7,31.4,33.3,0000.0,0006.72,0003.33,0002.50
2022-07-06 23:10:00,,0828.3,5.00,0.00,30.0,27.9,00.0,38.7,31.5,33.6,0000.0,0007.03,0003.36,0002.51
2022-07-06 23:11:00,,0828.3,5.00,0.00,29.9,28.1,00.0,38.7,31.5,32.7,0000.0,0007.53,0003.40,0002.51
2022-07-06 23:12:00,,0828.3,4.99,0.00,29.9,28.1,00.0,38.7,31.5,33.7,0000.0,0007.62,0003.42,0002.52
2022-07-06 23:13:00,,0828.3,5.00,0.00,30.0,28.2,00.0,38.7,31.6,33.1,0000.0,0007.52,0003.47,0002.55
2022-07-06 23:14:00,,0828.2,4.98,0.00,30.0,28.3,00.0,38.7,31.6,32.6,0000.0,0007.75,0003.55,0002.59
2022-07-06 23:15:00,,0828.2,5.00,0.00,30.0,28.4,00.0,38.7,31.6,33.4,0000.0,0008.16,0003.64,0002.62
2022-07-06 23:16:00,,0828.3,4.99,0.00,30.0,28.5,00.0,38.7,31.7,32.8,0000.0,0008.41,0003.74,0002.66
2022-07-06 23:17:00,,0828.2,5.00,0.00,30.0,28.5,00.0,38.7,31.7,32.8,0000.0,0008.80,0003.82,0002.72
2022-07-06 23:18:00,,0828.2,5.00,0.00,30.0,28.2,00.0,38.6,31.7,33.1,0000.0,0009.43,0004.08,0002.85
2022-07-06 23:19:00,,0828.1,5.01,0.00,30.0,27.4,00.0,38.6,31.6,32.2,0000.0,0009.98,0004.28,0002.92
2022-07-06 23:20:00,,0828.1,5.01,0.00,29.9,26.9,00.0,38.5,31.5,32.4,0000.0,0010.13,0004.34,0002.96
2022-07-06 23:21:00,,0828.1,5.00,0.00,29.9,26.8,00.0,38.5,31.3,33.4,0000.0,0010.16,0004.42,0002.97
2022-07-06 23:22:00,,0828.0,4.99,0.00,29.7,26.9,00.0,38.5,31.2,34.7,0000.0,0010.31,0004.55,0003.01
2022-07-06 23:23:00,,0828.0,5.00,0.00,29.7,27.0,00.0,38.5,31.2,34.9,0000.0,0011.03,0004.61,0003.03
2022-07-06 23:24:00,,0828.0,5.00,0.00,29.7,27.2,00.0,38.4,31.2,34.8,0000.0,0011.97,0004.66,0003.05
2022-07-06 23:25:00,,0828.0,5.00,0.00,29.7,27.3,00.0,38.4,31.3,34.7,0000.0,0011.92,0004.67,0003.05
2022-07-06 23:26:00,,0827.9,5.00,0.00,29.7,27.5,00.0,38.4,31.3,34.8,0000.0,0011.78,0004.67,0003.07
2022-07-06 23:27:00,,0827.9,5.01,0.00,29.8,27.6,00.0,38.4,31.3,34.9,0000.0,0012.07,0004.62,0003.05
2022-07-06 23:28:00,,0828.0,4.99,0.00,29.8,27.8,00.0,38.4,31.3,35.2,0000.0,0012.13,0004.64,0003.04
2022-07-06 23:29:00,,0828.0,5.01,0.00,29.9,27.9,00.0,38.4,31.5,34.7,0000.0,0011.83,0004.52,0002.98
2022-07-06 23:30:00,,0827.9,5.01,0.00,30.1,28.0,00.0,38.4,31.5,34.3,0000.0,0011.36,0004.36,0002.92
2022-07-06 23:31:00,,0828.0,5.00,0.00,30.1,28.1,00.0,38.5,31.5,33.6,0000.0,0011.30,0004.34,0002.90
2022-07-06 23:32:00,,0828.0,5.00,0.00,30.2,28.2,00.0,38.5,31.5,33.5,0000.0,0011.10,0004.25,0002.89
2022-07-06 23:33:00,,0828.0,5.00,0.00,30.2,28.2,00.0,38.5,31.6,33.2,0000.0,0010.77,0004.12,0002.82
2022-07-06 23:34:00,,0828.0,4.99,0.00,30.2,28.3,00.0,38.6,31.6,33.2,0000.0,0010.12,0004.08,0002.80
2022-07-06 23:35:00,,0828.0,5.00,0.00,30.2,28.4,00.0,38.6,31.6,33.3,0000.0,0009.04,0004.01,0002.77
2022-07-06 23:36:00,,0828.0,5.01,0.00,30.2,28.4,00.0,38.6,31.7,33.6,0000.0,0009.00,0003.99,0002.75
2022-07-06 23:37:00,,0828.1,5.00,0.00,30.3,28.5,00.0,38.7,31.7,33.6,0000.0,0008.77,0003.92,0002.70
2022-07-06 23:38:00,,0828.1,5.00,0.00,30.3,28.5,00.0,38.7,31.7,33.6,0000.0,0008.21,0003.89,0002.70
2022-07-06 23:39:00,,0828.1,4.99,0.00,30.3,28.6,00.0,38.7,31.8,33.6,0000.0,0007.87,0003.83,0002.65
2022-07-06 23:40:00,,0828.1,5.00,0.00,30.3,28.2,00.0,38.7,31.7,33.4,0000.0,0007.81,0003.77,0002.62
2022-07-06 23:41:00,,0828.3,5.00,0.00,30.3,27.5,00.0,38.6,31.7,33.3,0000.0,0007.84,0003.77,0002.61
2022-07-06 23:42:00,,0828.2,5.01,0.00,30.2,27.2,00.0,38.6,31.5,32.9,0000.0,0007.97,0003.78,0002.61
2022-07-06 23:43:00,,0828.3,4.99,0.00,30.1,27.2,00.0,38.6,31.4,33.5,0000.0,0008.04,0003.76,0002.60
2022-07-06 23:44:00,,0828.2,4.99,0.00,30.0,27.3,00.0,38.6,31.4,34.1,0000.0,0007.89,0003.73,0002.60
2022-07-06 23:45:00,,0828.3,5.00,0.00,30.0,27.5,00.0,38.6,31.4,33.8,0000.0,0007.89,0003.68,0002.58
2022-07-06 23:46:00,,0828.3,5.00,0.00,29.9,27.6,00.0,38.6,31.4,34.0,0000.0,0007.90,0003.65,0002.56
2022-07-06 23:47:00,,0828.4,5.00,0.00,29.9,27.7,00.0,38.6,31.4,34.3,0000.0,0007.73,0003.60,0002.55
2022-07-06 23:48:00,,0828.4,5.00,0.00,29.9,27.9,00.0,38.6,31.4,34.2,0000.0,0007.71,0003.59,0002.54
2022-07-06 23:49:00,,0828.5,5.00,0.00,29.9,28.0,00.0,38.6,31.4,33.8,0000.0,0007.75,0003.57,0002.52
2022-07-06 23:50:00,,0828.5,5.01,0.00,29.9,28.1,00.0,38.6,31.5,34.0,0000.0,0007.70,0003.55,0002.53
2022-07-06 23:51:00,,0828.8,5.00,0.00,29.9,28.1,00.0,38.6,31.5,34.0,0000.0,0007.63,0003.52,0002.54
2022-07-06 23:52:00,,0828.9,5.01,0.00,29.9,28.2,00.0,38.6,31.5,33.9,0000.0,0008.35,0003.54,0002.54
2022-07-06 23:53:00,,0829.1,5.00,0.00,29.9,28.3,00.0,38.6,31.6,33.8,0000.0,0008.21,0003.50,0002.52
2022-07-06 23:54:00,,0829.0,4.99,0.00,29.9,28.4,00.0,38.6,31.6,33.8,0000.0,0008.05,0003.48,0002.51
2022-07-06 23:55:00,,0828.7,5.00,0.00,29.9,28.4,00.0,38.6,31.6,33.6,0000.0,0008.04,0003.50,0002.53
2022-07-06 23:56:00,,0828.8,5.01,0.00,29.9,28.5,00.0,38.6,31.7,33.2,0000.0,0007.91,0003.50,0002.53
2022-07-06 23:57:00,,0828.7,5.00,0.00,29.9,28.5,00.0,38.6,31.7,33.5,0000.0,0007.83,0003.51,0002.54
2022-07-06 23:58:00,,0829.1,4.99,0.00,30.0,28.6,00.0,38.6,31.7,33.2,0000.0,0007.93,0003.53,0002.53
2022-07-06 23:59:00,,0829.2,5.00,0.00,30.0,28.5,00.0,38.6,31.8,33.5,0000.0,0007.93,0003.52,0002.53
